GFSMA_500_rhum_234.txt.gz
RH
34 35 38 36 36 39 45 62 62 59 55 59 64 74 71 56 54 51 48 54 57 63 84 86 87 92 80 73 58 50 49 29 25 24 26 29 36 46 46 44 35 31 22
47 57 74 77 72 72 76 76 83 78 77 80 84 90 95 77 63 64 55 50 51 58 70 84 100 94 93 77 66 56 56 41 30 28 31 31 31 35 43 44 36 34 23
39 33 35 37 38 44 45 56 68 66 80 90 85 88 91 85 84 77 61 53 47 51 61 77 84 95 95 90 88 57 63 55 34 32 31 33 30 30 36 41 41 35 20
27 26 26 28 37 46 44 48 57 62 60 65 65 70 83 87 80 66 56 56 54 56 56 75 76 72 83 88 85 78 58 71 54 36 31 36 38 32 36 39 33 30 17
32 32 32 30 29 28 29 33 36 41 53 62 68 82 72 78 78 70 58 57 50 56 57 62 79 72 60 66 76 77 67 63 70 65 41 35 39 44 34 30 31 28 21
24 24 22 21 19 19 20 21 27 26 30 43 63 61 74 80 68 66 63 64 57 58 64 65 71 76 64 75 59 67 82 73 70 71 87 46 37 39 42 33 35 31 30
26 25 22 18 18 14 17 23 28 34 29 30 42 47 53 55 63 64 57 53 62 66 71 66 81 89 83 66 80 79 80 77 69 78 78 84 48 39 35 40 37 33 34
29 28 27 24 25 25 28 35 37 35 28 47 52 58 43 51 46 55 58 42 52 57 68 71 90 93 96 91 73 76 77 53 50 86 92 89 75 49 48 40 42 41 30
34 32 31 31 30 31 32 35 38 36 32 32 48 80 87 42 52 86 76 73 52 57 57 88 94 94 94 93 84 68 70 86 50 63 87 97 96 82 65 52 48 48 37
19 20 19 20 23 25 28 27 28 25 24 26 28 30 52 42 94 68 70 60 74 67 87 83 94 98 95 90 86 81 62 72 78 42 86 99 99 98 94 86 61 56 57
25 24 23 25 26 27 27 24 21 18 17 18 19 22 22 25 83 37 96 94 57 35 67 76 97 92 93 91 81 94 72 72 76 64 54 86 93 95 99 91 83 65 78
14 15 19 25 24 23 21 19 14 7 7 8 12 13 14 17 18 21 30 91 54 76 62 96 60 96 80 96 82 86 83 81 72 75 56 83 80 85 90 91 93 94 92
14 19 22 22 20 17 14 8 4 3 4 4 6 11 95 80 56 22 70 83 69 63 83 87 85 73 52 70 82 92 92 87 81 82 66 58 54 60 79 91 98 97 93
25 24 20 14 7 3 3 5 5 4 3 2 3 20 64 100 100 95 100 63 100 99 97 66 51 48 44 62 49 82 86 72 79 95 74 43 41 57 70 80 99 92 97
10 5 3 4 13 18 17 15 19 32 25 4 9 30 32 76 99 100 98 75 98 68 98 62 26 53 46 42 33 80 96 98 93 100 90 53 41 62 72 83 90 87 96
3 6 16 22 24 19 16 24 33 40 35 51 75 99 100 48 88 98 99 93 100 99 95 89 52 82 49 57 66 99 98 98 96 99 98 68 66 64 68 53 83 78 96
7 29 25 18 18 18 27 34 46 67 76 57 100 71 100 100 67 100 98 99 97 96 100 94 70 97 88 95 100 99 98 96 96 94 98 82 59 53 48 44 80 98 97
22 23 18 23 25 22 30 40 67 86 82 83 96 100 100 100 100 100 100 89 100 85 99 65 98 95 79 91 100 97 99 100 94 84 100 89 68 48 48 52 58 82 100
31 24 25 31 36 38 26 22 34 78 92 100 100 83 87 65 61 71 92 100 96 100 100 100 92 100 68 97 100 97 98 98 100 96 96 93 81 62 57 51 49 58 66
22 33 34 41 42 46 59 61 42 45 79 97 100 100 72 70 97 64 99 94 99 100 100 97 99 99 99 98 100 99 98 98 99 100 97 100 90 78 94 65 43 53 56
32 42 42 40 32 49 53 52 54 42 37 53 43 99 100 80 89 100 100 77 98 96 99 93 99 100 99 99 98 98 99 99 99 100 100 98 82 75 67 61 60 57 68
44 48 51 32 25 23 25 23 18 18 25 31 22 15 23 80 100 88 100 100 99 90 78 100 97 96 92 100 99 99 99 98 98 98 100 96 97 80 62 77 100 100 100
64 54 48 48 45 36 22 12 7 7 8 7 12 24 19 17 61 99 100 93 100 100 100 100 100 100 100 93 91 98 99 99 99 100 100 98 100 100 83 96 100 100 99
65 62 47 46 51 47 26 8 8 9 7 7 8 5 7 17 18 35 95 100 100 100 100 100 100 100 100 99 100 82 100 100 100 100 100 100 100 100 100 100 100 100 100
45 50 46 47 59 54 16 8 7 9 6 7 7 6 6 6 7 16 28 59 100 100 100 100 100 100 100 100 100 87 79 97 95 98 99 96 99 99 100 100 100 99 99
64 50 57 76 62 54 13 6 6 6 7 8 8 8 8 6 4 5 12 18 46 95 91 95 99 99 100 100 98 100 99 91 100 100 96 98 98 100 100 99 97 98 100

GFSMA_500_rhum_237.txt.gz
RH
66 57 51 47 47 42 36 36 37 47 53 69 71 78 77 92 88 89 84 73 78 74 75 68 60 65 74 87 83 64 48 47 45 31 24 28 33 32 38 39 38 31 25
65 52 45 49 45 44 48 50 48 54 66 71 91 93 91 86 78 71 65 80 70 55 68 70 69 66 70 80 98 87 63 47 53 46 30 29 31 37 35 40 42 39 30
52 37 42 43 40 41 35 31 41 44 45 50 66 85 93 92 81 71 67 64 65 58 49 54 61 71 63 67 80 82 76 54 52 55 38 35 32 31 36 35 42 39 36
34 33 32 32 33 33 35 36 34 34 37 45 52 58 69 69 76 76 76 74 68 58 60 72 52 56 63 64 72 78 78 57 48 54 49 33 38 36 31 30 33 42 39
38 39 39 37 34 33 33 30 28 27 27 30 40 53 53 46 46 48 54 48 60 54 52 71 82 56 62 61 68 80 70 68 54 48 56 45 35 40 40 32 27 32 34
37 36 35 35 30 29 30 27 25 26 24 26 28 36 42 47 52 62 57 59 38 47 52 52 67 63 65 76 72 80 74 63 70 65 57 56 42 34 35 40 32 28 31
34 34 33 33 34 33 31 29 27 25 29 28 24 27 24 35 44 45 44 58 61 50 50 54 58 60 70 78 80 86 94 80 61 63 74 64 64 66 44 35 36 30 28
42 39 37 41 43 41 37 35 32 29 27 30 29 29 26 26 30 32 38 38 52 57 52 53 52 60 72 84 86 85 92 90 86 76 76 81 75 62 64 41 40 37 33
42 43 40 36 33 32 32 30 28 26 22 23 23 20 21 19 20 22 26 44 77 44 73 56 50 52 67 72 92 87 92 88 92 94 76 66 47 75 81 68 52 46 42
36 32 30 28 28 27 24 22 20 18 17 16 18 20 19 18 18 15 17 30 35 30 27 62 73 75 62 67 81 96 92 79 85 86 94 80 62 55 80 85 80 52 52
40 37 34 30 26 22 18 16 16 18 19 16 13 11 12 13 14 17 16 16 21 28 68 48 60 76 50 64 70 91 88 81 95 91 94 88 70 55 48 77 98 98 89
38 32 28 25 23 22 20 19 17 17 14 11 7 4 6 9 12 38 82 19 21 83 48 96 48 73 74 100 78 69 100 87 96 96 91 90 86 71 53 55 79 94 100
32 26 20 19 20 20 17 14 12 9 6 4 2 3 4 4 5 21 62 99 77 100 65 72 57 83 63 86 75 88 94 89 77 88 81 93 84 77 66 49 67 78 89
33 31 28 22 16 9 4 3 2 3 5 11 13 14 8 6 3 3 8 32 100 98 97 42 81 85 83 78 58 90 97 80 47 35 76 96 94 92 72 61 73 76 78
34 25 15 8 3 2 3 3 7 12 13 11 14 19 18 15 16 86 100 14 38 94 97 99 97 96 57 48 50 97 63 53 53 68 85 99 89 98 76 72 67 52 57
16 8 3 3 3 4 6 8 14 15 12 12 27 34 45 43 44 48 100 100 30 48 98 100 99 86 68 66 99 79 89 85 71 80 59 90 82 88 86 69 56 51 49
4 4 4 4 5 7 11 15 17 15 16 30 47 55 61 77 83 97 100 100 100 99 99 98 89 93 96 98 99 100 98 55 96 70 48 57 79 98 97 88 73 53 49
5 5 5 5 8 15 16 18 17 12 13 35 62 89 86 90 100 100 99 100 95 100 95 84 96 100 96 100 81 89 98 81 92 98 87 53 87 98 99 97 86 66 61
6 6 6 8 16 16 16 22 17 14 13 39 35 51 98 97 100 98 100 98 100 100 94 84 95 95 99 100 97 100 95 93 73 98 98 100 97 96 100 96 96 78 70
7 7 10 15 19 24 24 25 19 16 16 31 32 35 37 91 100 95 73 82 91 100 92 99 89 99 97 98 98 98 96 87 98 100 100 100 98 96 100 98 97 80 60
8 12 18 24 28 36 30 28 21 20 22 19 13 22 24 19 42 94 89 66 62 82 76 88 92 75 95 99 98 99 89 79 96 97 98 100 98 98 99 98 98 91 61
10 13 31 40 45 56 40 30 29 28 26 11 6 5 6 16 21 18 55 82 88 95 92 81 100 80 94 100 100 85 72 97 98 99 99 99 99 98 98 99 98 98 89
12 14 42 55 47 67 46 46 37 34 18 6 5 5 6 6 5 10 26 42 94 100 100 100 67 99 98 100 100 99 100 98 99 100 100 98 100 98 99 100 100 100 100
13 16 55 82 82 74 56 46 39 42 14 6 8 8 7 7 7 6 5 23 40 86 100 100 100 100 99 98 98 100 100 100 100 99 99 99 100 99 100 98 99 100 100
16 13 17 43 98 61 60 55 55 57 15 6 6 8 7 8 8 9 7 5 8 41 100 100 100 97 98 85 92 98 95 96 98 99 99 100 99 99 99 98 99 100 100
20 19 17 18 38 73 67 60 76 66 28 6 6 6 7 8 9 11 10 8 5 8 62 99 100 100 100 100 100 98 96 100 85 98 98 100 100 96 100 99 100 100 99

GFSMA_500_rhum_243.txt.gz
RH
60 60 61 65 68 65 61 66 88 92 78 60 57 60 73 79 68 65 90 93 95 96 96 97 90 97 93 85 92 77 68 75 77 75 62 46 28 20 23 29 33 34 32
52 53 55 55 55 52 50 51 52 58 53 53 52 49 55 59 58 46 60 54 66 91 96 89 95 96 100 89 85 90 74 64 76 77 71 60 46 34 20 22 26 28 29
47 46 43 44 44 42 42 40 39 40 39 37 36 37 40 47 52 48 49 51 50 56 64 84 85 93 95 93 90 84 86 74 69 70 72 74 62 46 40 21 23 26 29
45 43 46 46 47 48 46 47 47 43 40 38 37 36 34 32 33 36 39 38 37 36 34 40 52 68 82 79 72 88 77 82 76 70 69 72 70 57 49 39 21 22 23
54 51 48 44 41 40 40 42 42 42 41 38 37 37 36 37 38 38 38 36 38 32 32 32 40 49 58 68 64 60 63 78 89 76 71 69 65 65 54 52 38 22 20
49 45 42 40 42 45 42 40 41 42 41 36 34 31 32 34 32 30 31 31 30 30 29 27 29 30 32 48 58 58 52 53 74 84 76 78 68 66 66 59 53 40 24
49 47 47 44 41 44 42 39 38 36 35 34 34 35 37 35 34 33 32 31 30 29 26 25 24 28 32 28 32 47 52 48 51 70 86 81 76 70 70 70 61 55 41
60 57 57 59 52 52 54 56 52 47 44 42 36 35 33 33 31 29 26 23 21 21 20 18 17 17 18 33 39 37 39 42 47 54 69 84 86 83 70 72 73 61 58
83 75 72 70 68 67 68 63 57 52 51 49 43 40 35 30 27 25 22 20 18 16 15 13 12 12 14 25 35 40 40 42 39 39 55 75 91 95 88 81 82 71 65
87 85 70 76 77 72 72 69 61 56 50 47 47 45 39 36 33 27 23 16 16 17 16 13 11 11 11 14 56 35 42 49 49 34 38 70 83 91 97 91 85 85 74
86 91 79 86 87 87 86 79 64 53 50 50 48 40 36 34 32 31 27 19 12 8 9 10 10 7 8 10 16 91 32 38 57 58 44 49 84 87 82 90 100 85 84
95 91 91 88 86 83 73 65 60 56 53 45 39 31 24 18 13 14 14 13 16 8 4 3 3 3 3 6 11 30 64 98 48 57 64 53 81 86 80 78 98 95 92
93 94 94 88 89 85 72 61 54 44 34 25 17 14 11 10 8 8 8 7 7 6 6 3 2 2 2 2 6 28 76 56 86 67 82 60 58 79 64 71 94 97 97
97 96 94 89 74 68 61 48 32 20 13 10 7 5 5 5 4 4 4 4 3 3 3 3 3 2 2 2 2 5 44 47 84 96 58 93 58 92 83 69 92 98 99
92 80 74 72 68 57 38 21 12 7 6 6 6 6 6 6 5 5 5 4 4 4 3 4 3 3 3 2 2 3 5 41 99 87 88 58 88 74 83 86 89 98 89
77 77 74 62 40 19 9 6 7 7 8 8 8 8 6 6 6 5 6 7 8 6 5 5 11 26 16 10 6 4 4 11 64 98 95 74 80 96 84 77 100 96 79
81 66 40 16 8 7 8 9 10 10 10 10 9 8 7 7 8 8 10 11 9 7 10 15 26 44 51 90 100 33 7 6 53 98 98 58 62 80 88 96 96 100 98
37 13 8 8 10 11 12 12 12 12 12 10 9 9 9 10 11 11 14 13 8 8 20 26 40 40 71 64 99 95 31 8 8 97 98 97 94 97 100 94 99 97 90
9 10 12 14 15 16 16 16 15 14 13 12 10 14 14 15 16 18 19 16 11 8 7 9 47 50 82 83 69 100 100 86 7 100 96 98 96 97 100 97 97 97 100
15 16 17 18 18 19 19 19 17 16 15 13 12 15 20 23 25 23 24 17 13 10 8 6 16 75 96 94 55 82 100 72 13 95 99 98 99 100 80 97 98 94 96
16 16 18 19 19 19 18 17 16 16 15 14 13 14 23 32 32 40 26 20 15 13 8 7 6 60 100 100 65 54 92 94 91 46 98 99 99 98 96 100 98 92 93
16 15 15 15 14 14 13 12 13 14 15 16 15 16 38 51 52 49 36 26 19 14 10 8 7 24 100 98 100 93 94 72 65 52 95 96 99 96 97 98 98 97 91
14 13 12 11 10 9 9 9 8 10 15 18 17 21 76 71 72 62 58 38 21 12 13 9 8 9 99 98 100 100 100 92 100 67 84 98 97 99 99 98 98 96 91
10 9 8 7 6 6 5 5 5 9 16 20 20 25 96 100 80 69 62 41 24 7 11 10 10 6 78 100 96 75 99 100 100 91 98 100 100 100 96 96 98 98 98
8 7 6 6 6 6 5 5 5 10 21 26 24 21 73 100 100 92 78 40 15 6 8 10 11 8 19 100 99 84 97 100 100 100 99 95 99 99 99 98 98 98 100
5 4 15 52 61 29 13 22 15 29 45 48 42 34 29 52 96 100 100 82 16 7 8 9 12 10 10 78 100 100 100 100 100 100 97 97 99 100 98 96 97 98 98

GFSMA_500_rhum_246.txt.gz
RH
71 61 65 59 56 57 57 54 58 56 56 61 72 78 62 56 54 66 83 84 87 76 74 69 94 98 90 88 95 79 93 80 72 69 68 70 58 45 23 18 20 30 37
80 63 66 58 57 58 53 48 47 44 42 43 53 59 63 48 49 48 40 52 53 46 51 51 56 89 81 74 82 98 98 93 82 74 72 70 68 56 43 28 18 25 30
56 53 55 57 56 51 51 56 54 50 48 48 46 46 45 45 45 42 39 39 47 42 38 39 35 46 59 68 73 81 87 99 96 91 80 74 72 76 60 45 33 19 27
49 46 45 45 46 43 47 52 54 53 49 48 47 46 41 40 41 41 40 38 36 41 43 34 42 39 29 30 50 64 67 74 95 99 94 89 74 72 78 64 47 38 19
46 45 44 42 43 48 50 48 47 48 49 46 43 43 41 42 42 39 38 38 38 33 32 35 32 34 36 32 35 52 63 64 66 81 83 92 89 74 71 79 64 50 43
64 56 51 49 53 54 53 52 52 50 49 50 48 44 40 38 35 33 33 31 32 34 32 33 32 29 26 27 28 33 50 53 60 64 66 70 80 86 74 66 74 62 53
66 49 52 56 60 59 60 57 50 49 49 46 48 47 48 48 46 42 38 37 35 34 33 31 29 30 37 36 28 24 25 39 47 55 62 62 68 81 80 72 69 67 59
96 93 80 74 59 54 56 53 49 55 52 50 50 50 52 50 48 46 41 37 34 32 29 26 23 21 19 20 25 25 22 24 34 44 52 54 58 65 77 75 72 72 67
86 85 98 96 97 74 68 64 63 57 61 65 67 66 62 58 52 48 44 41 38 36 33 28 23 19 18 16 16 17 21 20 26 41 49 51 44 50 62 68 74 75 70
89 94 96 87 95 90 90 88 85 84 87 85 84 85 79 67 54 48 46 43 41 38 35 33 29 24 17 14 13 13 13 19 24 28 40 55 47 41 51 62 63 74 77
98 98 96 97 97 96 97 97 91 91 83 79 81 83 75 66 54 48 46 37 33 30 26 23 21 21 19 15 11 10 12 12 18 28 36 49 49 35 44 67 70 65 70
98 98 98 97 97 97 97 94 91 87 83 76 73 69 62 56 48 42 34 27 20 15 15 12 11 10 9 9 8 7 7 9 8 13 31 57 84 48 32 52 84 72 51
94 95 95 96 91 91 95 91 85 80 77 71 63 55 47 39 31 25 22 18 16 12 9 7 6 5 5 4 4 4 3 3 5 7 13 100 57 91 82 43 45 89 60
94 95 94 92 90 88 85 82 81 77 71 60 52 41 32 21 15 12 9 8 7 6 5 4 4 4 4 4 3 3 3 2 2 3 6 35 76 56 22 81 93 85 78
97 97 96 94 89 85 80 77 74 66 54 38 22 13 8 7 6 6 6 6 5 4 5 6 5 4 4 4 4 4 3 2 2 2 2 5 32 89 99 95 96 96 97
97 97 95 95 94 86 76 70 56 31 15 8 7 8 8 8 8 8 8 8 8 8 6 7 7 6 6 5 5 4 4 4 3 3 3 2 8 54 79 97 75 95 99
98 99 100 100 95 79 50 25 11 9 10 11 11 11 12 12 12 12 11 10 9 8 8 7 7 7 7 6 5 5 5 9 16 16 3 3 3 13 51 98 99 71 53
100 100 96 80 39 13 10 11 13 14 14 14 15 16 16 16 15 14 12 10 10 10 9 9 10 11 7 7 7 10 18 27 37 38 29 4 2 4 70 97 100 99 88
88 46 18 12 12 15 16 16 16 16 16 16 17 18 18 18 16 14 12 12 16 16 14 15 14 16 9 9 8 9 18 50 61 66 68 59 3 3 42 100 97 97 99
13 14 16 16 17 17 17 17 16 16 16 16 17 18 18 18 17 15 14 15 23 24 24 22 20 20 11 11 10 10 21 90 84 72 87 93 19 3 12 95 98 99 100
18 18 16 16 16 16 15 15 14 14 13 13 14 14 15 16 16 16 15 20 42 40 34 33 25 22 14 12 11 11 24 79 99 73 100 100 58 3 11 96 100 99 99
19 18 17 16 15 14 12 11 11 10 10 10 10 9 9 11 15 17 16 19 51 58 56 41 29 19 12 13 11 11 26 83 88 100 100 95 100 15 2 60 99 97 96
19 17 15 12 11 10 9 9 8 7 7 7 7 7 9 11 16 19 18 20 56 68 69 52 44 14 10 10 12 10 36 94 93 78 99 90 100 86 6 35 98 100 99
16 14 12 11 10 9 8 7 6 5 7 6 6 6 5 8 15 22 20 47 84 91 82 67 49 17 8 10 13 11 29 100 98 100 100 100 100 81 8 21 99 97 98
14 12 11 10 10 9 8 6 4 10 19 17 8 6 6 11 24 28 23 94 100 100 86 70 46 18 8 10 14 12 40 76 54 90 100 100 100 92 34 60 98 100 100
14 12 10 9 7 6 5 5 25 100 100 91 44 18 23 35 47 45 33 32 99 100 97 84 61 20 8 9 12 16 32 87 76 96 100 100 100 100 61 99 100 98 98

GFSMA_500_rhum_249.txt.gz
RH
73 75 94 90 77 73 64 61 53 60 59 62 69 70 72 82 92 74 80 95 91 90 87 79 71 76 72 86 97 97 93 92 80 73 67 63 74 63 47 32 17 18 31
61 70 68 58 66 72 81 64 58 51 44 39 41 41 40 46 64 92 91 92 88 87 71 66 66 51 56 70 91 95 92 99 97 92 78 70 69 71 64 48 32 21 18
58 65 63 55 55 58 51 48 47 46 44 45 47 46 44 44 46 48 56 62 69 74 61 58 60 49 43 48 61 77 75 82 95 95 97 92 77 73 68 69 49 39 26
51 45 47 52 51 49 49 47 48 47 43 45 47 48 46 43 41 43 45 45 44 50 53 46 52 51 46 44 46 42 47 67 72 80 89 87 97 88 74 72 68 52 41
57 61 66 61 65 57 52 48 46 44 44 48 48 44 43 40 41 40 39 41 42 40 41 42 40 39 45 43 40 46 42 42 61 75 71 81 83 92 88 77 69 67 50
88 98 84 79 77 80 63 57 55 54 54 52 48 46 47 48 47 45 42 40 39 36 33 32 33 33 32 30 31 31 34 41 51 62 69 69 73 80 84 88 81 70 62
98 94 99 88 83 96 93 91 83 66 62 59 56 53 50 48 50 47 45 40 38 38 38 38 34 33 31 31 32 31 30 29 35 48 56 59 62 64 74 74 79 82 67
95 91 80 76 82 95 89 98 98 96 96 79 72 73 64 62 58 54 58 53 49 46 46 42 39 36 34 32 30 27 28 30 36 48 51 58 51 52 59 62 64 72 84
95 92 90 94 88 87 92 90 80 94 97 96 86 76 75 72 64 60 62 68 65 58 53 48 44 39 35 32 29 26 24 24 26 27 36 50 85 55 51 48 52 58 63
97 96 96 95 95 97 98 94 89 92 97 100 96 88 93 86 76 65 63 72 78 72 62 52 47 44 41 37 33 29 23 20 19 18 19 32 40 48 51 53 51 51 58
93 97 93 92 95 98 97 97 97 98 98 98 97 98 95 95 84 77 74 72 73 73 66 54 48 45 42 37 34 30 28 23 20 17 17 16 27 65 38 45 51 53 71
98 96 97 97 97 97 97 96 97 96 96 95 95 94 94 93 89 85 72 70 66 64 72 75 64 45 32 26 23 20 17 17 16 15 14 14 16 19 32 99 65 51 53
78 98 100 98 97 97 95 96 97 97 96 95 95 95 94 92 88 70 63 59 54 48 42 36 30 27 28 26 19 16 14 13 12 12 11 10 10 12 18 32 69 52 98
88 94 91 93 98 97 97 97 97 97 97 98 97 93 79 76 70 63 56 49 44 35 25 18 15 14 12 12 10 10 10 9 7 6 6 6 7 8 9 12 21 63 63
93 99 99 98 98 99 100 95 91 92 92 92 94 88 76 68 60 48 35 22 16 11 8 7 6 6 6 6 6 6 5 4 4 4 4 3 4 4 5 6 10 16 37
100 100 100 98 98 98 96 93 92 94 93 86 68 47 30 18 13 10 8 8 8 6 5 7 7 6 6 5 5 4 4 4 4 4 4 3 3 3 3 3 5 11 18
100 100 100 98 98 97 96 96 94 73 50 26 13 11 11 12 12 11 11 10 10 9 7 8 9 9 9 8 8 7 7 6 6 5 5 5 5 4 3 3 3 5 13
100 100 100 100 91 66 38 24 17 14 14 14 15 15 14 15 14 14 14 13 12 12 11 9 10 11 12 11 10 9 9 8 8 7 7 6 5 5 5 4 3 2 5
28 20 15 14 15 17 19 19 19 19 19 18 18 17 16 16 15 15 14 14 14 14 13 13 12 14 13 12 12 11 11 11 9 7 6 6 6 4 4 4 6 3 3
16 16 16 16 16 16 17 18 18 18 18 17 17 16 15 15 14 14 14 14 15 16 16 16 16 15 14 14 15 16 14 15 13 9 8 8 7 8 23 42 21 6 3
19 18 18 18 18 18 17 16 17 18 18 17 16 15 13 12 12 12 12 13 14 15 17 18 17 16 15 16 23 22 18 19 16 11 12 12 18 29 58 54 45 29 17
20 20 23 24 23 23 23 21 19 16 15 14 13 11 10 9 9 10 10 10 11 11 13 15 16 16 15 24 34 30 29 25 16 13 14 12 33 55 73 100 100 100 88
26 28 29 28 25 22 20 18 16 14 13 12 11 10 9 8 7 7 7 7 8 8 10 13 16 17 17 45 59 48 34 33 21 15 15 22 64 77 66 80 99 100 49
33 34 32 28 23 20 19 17 16 14 13 12 10 10 9 8 6 6 7 7 7 11 14 17 19 18 36 75 79 54 46 32 20 16 16 24 57 76 93 83 100 99 100
33 29 25 22 20 17 14 12 10 9 8 8 7 6 5 6 17 29 15 10 9 11 20 22 22 37 100 100 82 65 37 19 17 18 15 23 55 59 95 92 97 100 97
28 24 20 14 10 7 6 6 7 7 7 7 7 6 7 52 100 99 80 29 9 28 32 31 52 100 100 100 77 55 28 13 18 20 16 26 75 91 97 100 100 100 37

GFSMA_500_rhum_255.txt.gz
RH
96 98 92 91 96 95 97 96 96 89 95 94 95 79 71 61 81 76 79 95 96 94 93 94 92 88 80 53 38 78 77 75 99 96 65 62 59 64 66 54 42 30 20
95 94 86 85 82 90 93 86 86 87 79 76 78 77 80 69 56 53 49 46 54 56 67 75 97 96 97 96 67 88 66 58 79 98 84 65 62 59 61 66 62 49 36
94 79 72 71 70 74 70 78 78 84 95 79 62 59 68 72 57 49 48 42 46 47 44 56 74 76 85 96 94 87 70 60 57 90 98 75 74 69 66 63 67 65 58
91 85 75 62 75 87 91 93 78 76 69 63 53 54 55 58 58 55 49 44 45 50 51 50 43 39 55 67 93 87 68 58 60 55 91 97 93 94 90 81 70 67 68
98 93 87 88 89 93 90 100 95 72 69 79 98 74 64 67 55 54 62 59 53 48 46 45 46 45 40 40 43 63 67 70 83 52 54 79 91 96 99 91 83 71 68
93 94 89 95 97 94 86 92 95 87 80 68 72 99 98 93 72 65 68 68 65 65 58 53 47 44 43 44 44 43 42 48 55 68 74 62 64 81 87 99 89 85 68
65 73 73 76 92 92 91 94 92 90 95 82 68 80 100 98 86 64 73 80 69 60 58 59 61 54 45 42 44 43 43 43 42 47 51 66 79 72 65 87 97 81 85
44 50 59 61 60 58 71 84 91 86 98 96 89 81 90 96 97 93 83 68 79 93 70 61 63 62 59 51 51 50 44 40 42 39 38 48 53 65 67 56 60 80 84
24 45 53 51 52 50 44 49 72 91 91 95 91 92 92 88 89 96 84 98 82 91 97 82 64 64 73 76 63 57 55 49 41 37 33 34 42 48 53 59 52 54 75
13 23 40 53 54 50 52 54 54 70 79 97 93 91 93 94 97 100 93 96 92 88 98 92 98 92 89 89 91 83 70 62 53 48 43 40 37 37 45 55 58 53 61
24 31 41 48 59 73 82 80 78 75 67 69 96 96 96 95 95 87 98 96 88 95 97 96 93 95 97 90 76 82 89 80 69 59 50 46 43 40 40 40 49 56 66
48 50 55 65 69 77 80 86 93 95 96 95 88 92 88 96 98 92 88 99 95 90 91 100 98 96 92 94 88 88 86 95 89 76 61 52 46 41 38 36 37 40 47
74 79 77 74 74 75 77 80 86 94 95 94 93 97 96 94 92 95 89 87 96 100 96 94 97 98 97 94 94 87 87 94 93 90 75 65 55 47 40 35 33 32 34
63 63 64 64 64 65 66 68 71 81 91 94 93 92 93 97 97 98 94 87 87 94 100 100 96 96 94 96 96 93 93 98 97 90 92 87 82 68 51 44 38 34 30
29 18 13 10 10 10 11 12 18 27 43 63 81 90 90 90 90 94 93 90 89 89 92 97 97 95 95 93 92 95 100 98 97 96 94 91 73 70 70 64 48 38 34
6 5 5 5 5 6 6 7 8 10 11 12 12 14 20 31 49 68 79 80 79 75 72 89 99 98 95 93 89 89 94 90 82 77 80 80 80 92 82 62 55 52 43
5 5 5 5 5 5 5 6 7 8 8 9 13 14 16 18 19 21 22 21 26 37 54 62 78 95 98 93 90 90 87 73 74 74 63 52 44 34 40 79 92 70 56
6 5 5 5 5 5 5 5 6 7 10 12 11 14 16 17 19 21 23 24 24 22 18 16 17 19 32 65 81 79 74 63 46 41 40 40 38 27 15 11 19 53 81
6 6 6 6 5 4 4 6 7 9 14 19 19 21 20 20 18 19 22 22 23 23 22 20 18 19 18 17 15 20 19 16 12 10 9 9 8 7 7 8 8 7 7
7 6 5 4 4 5 11 17 22 24 24 26 27 28 28 28 26 22 20 22 22 20 21 21 20 18 19 19 18 16 15 14 13 11 10 9 9 8 7 6 5 5 4
6 4 3 4 8 14 21 26 28 28 26 27 29 29 28 29 33 35 32 26 22 23 22 21 21 20 19 19 18 18 16 16 15 13 12 11 10 9 9 8 8 7 6
4 3 5 12 20 26 29 30 30 28 27 27 26 27 28 28 31 35 34 36 34 28 21 21 22 20 19 19 18 17 16 16 15 14 14 13 13 11 10 10 10 9 8
3 5 15 20 23 25 24 23 21 20 19 19 19 19 19 20 22 24 25 27 29 28 28 24 23 20 19 18 17 16 15 15 15 14 14 13 14 12 13 12 12 11 11
6 13 20 23 22 16 11 8 8 8 8 8 8 7 8 9 10 11 13 15 16 20 20 22 21 19 17 15 14 14 13 12 12 12 13 13 14 13 15 15 15 14 14
12 19 22 19 13 9 9 12 13 13 13 14 15 15 15 13 13 10 9 8 9 11 11 11 14 16 14 14 12 11 11 10 9 9 10 10 11 12 13 14 15 15 15
20 23 23 16 12 15 17 19 15 13 12 12 13 15 19 20 20 20 18 13 9 8 8 8 9 12 10 11 10 10 10 9 8 8 8 8 8 10 10 12 14 17 20

GFSMA_500_rhum_258.txt.gz
RH
96 96 95 95 97 96 97 97 97 96 97 96 95 95 96 97 97 94 78 78 91 94 96 95 96 96 93 98 84 50 46 54 72 80 93 91 70 66 69 54 40 27 22
94 95 92 96 97 89 83 81 94 83 87 88 89 95 89 82 90 91 95 90 83 73 66 54 71 96 98 100 95 94 75 50 86 72 78 92 70 66 71 68 58 44 35
88 96 96 96 96 96 95 94 78 71 71 63 75 81 83 90 64 60 72 85 81 67 57 53 44 47 64 97 96 97 97 76 90 63 63 97 82 69 70 71 68 62 51
92 94 95 95 96 96 97 96 96 90 80 77 72 66 72 76 72 56 47 62 64 58 59 61 51 52 46 55 78 86 96 97 94 77 66 78 88 84 74 73 70 69 69
45 58 71 82 77 80 91 91 92 93 93 95 86 94 89 70 66 90 78 56 62 59 55 58 60 53 52 53 54 56 67 84 96 95 76 78 85 89 85 81 76 74 71
28 28 28 26 43 60 68 72 73 84 96 93 95 85 86 86 63 67 91 95 74 69 65 61 55 56 59 54 50 50 55 63 71 90 93 96 96 87 94 98 95 90 87
41 43 34 24 22 17 34 53 62 64 76 82 91 100 93 90 95 85 75 85 90 99 69 64 66 54 49 51 54 53 52 53 58 65 66 80 96 96 95 93 95 96 95
45 39 27 14 12 14 24 37 44 57 58 53 54 62 89 97 91 85 86 88 76 82 94 75 76 79 74 60 56 55 55 50 50 50 55 62 75 90 90 86 79 75 95
41 23 9 11 17 19 24 36 44 46 46 43 40 46 56 68 90 94 82 91 95 93 86 94 83 75 75 90 83 61 67 63 54 54 54 48 50 62 70 78 84 82 68
9 12 15 18 24 27 42 52 54 56 58 64 60 46 48 58 72 89 94 90 92 95 97 97 95 98 100 91 87 94 71 69 60 51 54 55 49 46 46 50 65 74 78
39 44 45 49 50 51 52 53 57 64 67 70 73 77 76 65 59 67 93 95 90 98 97 96 93 95 94 97 88 91 96 71 67 60 62 61 65 57 46 44 41 48 66
55 53 52 53 54 53 53 51 49 48 49 51 55 59 66 78 87 70 65 84 96 98 96 100 99 97 95 92 86 84 95 96 100 91 74 78 80 74 61 52 46 45 46
41 27 16 10 7 6 5 5 5 5 6 7 11 21 38 54 59 71 81 84 87 99 96 96 100 98 95 91 96 96 97 97 100 96 96 90 86 87 81 63 54 49 46
6 5 4 4 4 4 4 4 4 4 4 4 4 4 4 5 8 29 58 62 74 87 100 100 97 99 95 96 97 94 92 100 100 100 97 97 93 87 83 81 71 58 50
4 4 5 5 5 5 5 5 5 5 5 5 4 4 4 4 4 5 6 14 50 65 81 98 100 98 96 100 98 95 91 92 98 100 98 97 95 94 98 90 85 74 64
5 5 5 4 4 5 5 5 5 5 5 5 5 5 4 5 5 6 7 7 8 11 35 79 99 98 98 97 94 90 93 99 100 99 99 96 95 96 98 100 97 91 70
5 4 4 4 5 5 5 4 4 4 4 4 4 4 4 5 6 10 15 17 15 13 9 12 31 62 98 98 99 92 86 85 93 100 100 97 96 100 100 100 98 96 93
6 6 6 6 6 6 6 5 4 3 3 3 3 4 5 8 12 15 18 23 24 23 18 12 17 18 25 66 100 93 95 95 97 100 100 97 93 93 100 100 100 97 97
7 7 7 7 7 6 4 4 3 3 4 6 9 13 15 16 21 30 30 27 28 29 28 25 19 21 24 25 26 69 94 90 96 100 100 98 92 90 78 74 80 83 86
8 8 8 7 6 5 3 3 5 11 16 20 22 24 24 26 27 28 31 35 33 30 30 32 30 26 25 26 25 23 22 37 70 82 98 97 97 100 97 86 81 76 61
9 9 8 6 5 4 4 10 16 20 21 20 18 17 18 21 24 26 28 32 37 35 31 30 31 31 30 27 26 25 23 22 20 23 38 63 84 76 74 78 79 75 69
10 9 7 5 4 5 15 22 25 24 18 12 9 9 9 9 9 13 20 23 26 31 34 32 29 29 32 30 30 27 24 22 22 21 20 19 22 31 38 31 24 18 18
10 8 6 4 4 13 23 25 18 10 9 10 11 11 10 10 10 9 9 10 17 20 24 30 32 31 26 26 30 28 26 24 21 21 21 20 20 18 18 17 18 16 14
9 7 5 4 8 22 25 16 10 13 17 17 14 12 12 10 11 12 12 11 10 9 15 16 24 30 32 29 30 29 26 25 24 23 20 18 20 19 20 18 18 16 15
8 6 4 5 16 27 18 13 18 24 23 14 12 10 10 10 11 13 10 13 14 10 10 10 12 15 21 26 28 30 26 25 23 22 22 19 19 18 18 18 18 17 16
7 5 4 12 26 24 14 22 30 31 16 11 9 10 11 11 10 11 13 13 12 17 22 15 10 10 10 14 17 21 24 25 22 20 17 18 18 17 17 16 16 16 16